Wetbulb
61.88 61.44 61.89 61.50 61.22 60.05 60.85 61.89 61.91 61.92 61.59 60.58 61.70 63.21 63.47 63.08 62.14 62.01 62.65 61.48 60.88 60.48
62.24 61.48 61.01 61.88 61.80 58.84 59.58 62.20 61.98 61.57 61.17 61.49 62.87 63.38 62.51 62.28 62.40 62.63 62.28 61.66 61.65 61.30
62.97 62.76 63.10 62.89 61.03 59.99 60.94 61.51 61.44 61.14 61.55 61.37 62.38 62.64 61.62 61.08 61.62 61.55 61.41 61.81 61.63 61.71
63.27 63.87 63.32 62.44 61.44 61.23 61.05 60.68 61.25 61.59 61.83 62.35 61.83 61.29 61.38 61.70 62.16 61.28 61.08 61.38 61.44 61.55
64.31 64.02 62.92 62.02 61.92 61.59 60.90 61.20 62.31 62.40 62.35 61.50 61.17 61.47 62.09 61.96 62.07 61.59 60.91 60.98 60.58 60.73
64.68 64.42 63.10 63.12 62.37 61.92 61.48 61.33 60.55 60.30 59.31 58.60 59.11 60.40 60.85 61.39 61.46 61.16 61.57 61.35 60.17 59.87
65.50 65.36 64.87 64.27 63.04 61.88 61.28 60.25 59.74 59.82 59.55 59.39 60.08 60.66 60.55 60.71 60.66 61.15 61.50 61.07 59.91 59.39
65.48 65.13 64.73 63.99 63.03 62.15 61.75 61.97 60.25 60.10 59.67 60.27 61.20 61.83 60.62 61.02 61.62 61.08 60.28 59.87 59.58 59.80
64.59 63.83 63.19 63.16 62.64 61.64 62.62 61.80 60.35 59.97 60.14 60.27 61.61 61.25 62.12 62.75 59.55 58.86 58.08 56.99 56.29 56.81
65.44 63.84 62.85 63.08 62.03 61.92 62.13 61.48 59.97 60.03 60.25 60.17 59.87 59.73 59.87 62.55 58.18 56.54 55.62 54.51 55.20 56.61
65.43 64.48 63.38 61.64 61.97 62.57 62.32 61.48 60.73 60.41 60.27 59.43 60.58 58.85 58.30 60.80 59.13 56.59 55.35 55.85 56.17 54.59
66.01 64.64 63.12 62.89 63.53 63.67 61.74 60.98 61.31 60.56 60.48 60.45 60.21 58.15 57.47 57.94 57.50 55.99 55.42 54.06 53.96 55.14
66.09 64.88 63.40 63.71 63.77 63.69 62.71 61.89 61.58 61.62 59.68 60.26 60.44 57.35 55.76 55.58 56.10 54.08 52.83 53.43 53.87 54.74
63.72 63.81 64.11 62.94 62.11 62.29 63.18 61.81 61.90 62.58 62.02 61.63 59.61 58.89 54.43 53.91 54.40 53.48 53.46 52.27 50.73 51.53
MSLP
1013.93 1014.55 1015.12 1015.52 1016.03 1016.26 1016.37 1016.25 1016.39 1016.63 1016.70 1016.87 1016.78 1016.81 1016.80 1017.02 1017.14 1017.25 1017.28 1017.52 1017.50 1017.51
1013.64 1014.31 1014.75 1015.22 1015.41 1015.78 1015.98 1016.10 1016.22 1016.25 1016.55 1016.56 1016.52 1016.56 1016.74 1016.86 1016.98 1017.08 1017.04 1017.13 1017.29 1017.50
1013.12 1013.61 1014.19 1014.71 1015.07 1015.31 1015.45 1015.79 1016.03 1016.17 1016.40 1016.39 1016.40 1016.50 1016.59 1016.62 1016.55 1016.64 1016.68 1016.68 1016.90 1017.03
1012.59 1013.19 1013.87 1014.23 1014.61 1014.85 1015.13 1015.43 1015.75 1015.84 1016.14 1016.25 1016.24 1016.21 1016.32 1016.33 1016.33 1016.43 1016.39 1016.33 1016.36 1016.30
1011.93 1012.80 1013.60 1014.01 1014.17 1014.26 1014.64 1014.87 1015.13 1015.41 1015.63 1015.81 1015.86 1015.88 1016.01 1016.02 1015.85 1015.90 1015.99 1015.89 1016.06 1015.96
1011.58 1012.46 1012.91 1013.32 1013.60 1013.81 1014.08 1014.43 1014.91 1015.03 1015.12 1015.26 1015.38 1015.36 1015.36 1015.46 1015.48 1015.56 1015.42 1015.37 1015.45 1015.56
1010.48 1011.20 1011.75 1012.22 1012.76 1013.15 1013.62 1014.06 1014.33 1014.39 1014.48 1014.58 1014.75 1014.90 1014.96 1015.00 1014.95 1014.82 1014.81 1014.92 1015.07 1015.05
1009.88 1010.41 1010.83 1011.11 1011.60 1012.28 1013.02 1013.23 1013.48 1013.84 1014.03 1014.17 1014.32 1014.26 1014.17 1014.18 1014.33 1014.34 1014.32 1014.43 1014.51 1014.52
1009.27 1009.97 1010.60 1010.80 1011.05 1011.63 1012.10 1012.72 1013.06 1013.40 1013.66 1013.90 1013.95 1013.70 1013.70 1013.62 1013.82 1013.98 1014.18 1014.36 1014.24 1014.27
1008.61 1010.11 1009.99 1010.12 1010.87 1010.96 1011.49 1012.19 1012.64 1013.04 1013.26 1013.37 1013.30 1013.30 1013.38 1013.30 1013.41 1013.77 1013.95 1014.30 1014.32 1013.96
1009.02 1009.53 1009.38 1009.70 1009.98 1010.22 1010.98 1011.59 1012.08 1012.49 1012.75 1013.07 1013.13 1013.13 1013.11 1013.02 1013.45 1013.37 1013.75 1013.77 1013.69 1013.64
1008.69 1008.14 1008.71 1008.99 1009.26 1009.65 1010.78 1011.54 1011.98 1011.76 1012.18 1012.74 1012.93 1012.71 1012.82 1012.96 1013.38 1013.21 1013.12 1013.23 1013.30 1013.21
1006.92 1007.46 1007.80 1008.31 1008.91 1009.58 1010.21 1010.79 1011.59 1011.65 1012.21 1012.56 1012.38 1012.19 1012.32 1012.76 1013.11 1013.13 1013.07 1013.17 1013.10 1012.58
1006.24 1006.87 1007.63 1008.62 1009.67 1010.38 1011.55 1011.57 1010.95 1010.94 1011.25 1011.62 1011.98 1011.97 1012.11 1012.49 1013.26 1013.12 1013.18 1013.31 1012.97 1012.32
Wind_Speed
9 6 5 6 4 4 4 4 5 5 4 5 3 2 2 2 3 3 4 5 4 3
8 8 7 7 6 5 5 4 6 6 6 5 4 3 2 2 3 4 3 5 5 4
10 8 7 7 7 7 6 6 6 6 6 5 5 4 3 3 4 4 4 3 5 5
9 8 7 7 7 7 6 7 6 7 6 6 6 6 5 6 6 5 6 4 6 7
9 9 8 7 7 7 8 6 7 6 6 6 6 6 6 7 6 6 6 6 5 7
9 9 10 9 8 8 7 7 6 6 6 6 6 7 7 6 6 6 7 7 5 7
15 12 12 12 10 8 7 7 8 7 7 7 7 6 6 7 7 6 6 6 6 6
13 12 12 11 10 9 8 9 8 7 7 7 6 6 7 7 7 6 5 6 6 6
10 10 12 10 10 8 10 8 7 7 7 7 6 9 10 8 5 6 5 6 5 6
21 14 14 12 8 9 10 6 8 7 7 8 7 7 8 9 5 5 5 4 6 6
9 16 10 8 9 10 5 8 8 8 7 5 5 7 8 9 5 5 5 6 6 5
22 14 9 10 11 10 4 4 6 6 6 3 7 6 9 5 5 5 5 3 5 4
14 11 9 10 10 4 3 5 5 4 3 7 8 8 8 5 3 3 3 3 4 6
6 8 8 8 9 8 4 2 6 6 5 6 6 7 6 5 3 4 2 4 4 3
Wind_Direction
166 169 176 176 181 184 185 180 177 189 189 226 221 255 274 237 232 223 220 220 215 200
170 166 173 187 170 176 189 192 192 193 206 226 245 234 260 261 254 250 230 231 230 219
178 174 178 171 182 185 188 196 181 198 215 224 238 249 238 253 255 247 258 233 228 231
172 166 172 173 184 191 186 188 194 205 217 230 237 247 243 248 256 246 253 244 231 235
164 167 172 191 197 192 199 191 204 199 213 227 238 250 243 252 256 245 256 250 235 251
167 177 186 196 202 201 197 198 202 203 210 230 242 246 246 239 252 251 249 258 244 253
183 192 187 193 203 201 199 190 205 210 218 228 242 244 250 249 247 247 249 260 253 252
176 193 191 185 196 204 197 202 200 212 227 240 237 241 236 242 239 231 250 265 266 261
185 190 197 191 203 193 207 202 198 216 222 234 241 238 239 222 211 230 238 261 292 278
182 209 200 192 189 207 212 186 210 221 219 234 243 248 250 229 212 237 239 248 269 283
180 212 191 176 197 222 185 197 209 222 226 234 265 256 262 258 245 233 240 240 249 257
208 199 174 184 210 223 169 168 216 207 187 196 261 260 263 262 244 237 250 262 266 270
194 190 177 190 214 246 154 193 209 205 189 236 255 253 244 212 209 251 251 285 281 288
124 110 108 98 81 48 349 257 191 200 218 233 237 273 264 198 212 226 252 260 283 310